sat.trackr.live / text

‹ back to catalog

STARLINK-33549

NORAD 62289 · 2024-237Y

PAYLOAD ACTIVE UNKNOWN

§ Identity

Operator
Country
US
Launch date
2024-12-08
Launch site
AFETR
Launch vehicle
Mass (kg)
RCS (m²)

Purposes: comms

External: N2YO · Heavens-Above · Gunter

§ Orbital elements

Epoch: 2026-05-25T00:29:52.368000Z

Period
94.27 min
Inclination
42.9982°
Eccentricity
0.0000721
Mean motion
15.27581499 rev/d
Perigee alt
482.5 km
Apogee alt
483.5 km
Semi-major
6,861.2 km
B*
6.6161e-4
RAAN
145.4660°
Arg perigee
264.1257°
Mean anomaly
95.9512°
Rev number
8,286

§ Raw data

STARLINK-335491 62289U 24237Y   26145.02074500  .00017989  00000+0  66161-3 0  99972 62289  42.9982 145.4660 0000721 264.1257  95.9512 15.27581499 82862

JSON: /api/v1/satellites/62289 · /tle

For live sub-satellite position, see the globe view (requires WebGL).

§ Visibility from observer

Set your observer location to see the next 7 days of passes ≥ 10°. The values pass through the URL so the page stays shareable.

No JS? Fill the form by hand. The geolocation button needs JavaScript.